Weather History for Wainwright, AK

Change the Weather History Date:

Saturday, July 27, 2013

  Actual Average (PABR) Record (PABR)
Temperature  
Mean Temperature 50 °F 41 °F  
Max Temperature 55 °F 47 °F 70 °F (1928)
Min Temperature 46 °F 35 °F 25 °F (1992)
Degree Days  
Heating Degree Days 15 24  
Month to date heating degree days 651  
Since 1 June heating degree days 1531  
Since 1 July heating degree days 651  
Cooling Degree Days 0    
Month to date cooling degree days  
Year to date cooling degree days  
Since 1 June cooling degree days  
Moisture  
Dew Point 48 °F    
Average Humidity 90    
Maximum Humidity 94    
Minimum Humidity 86    
Precipitation  
Precipitation 0.51 in 0.04 in 0.68 in (1954)
Month to date precipitation 0.84  
Year to date precipitation 1.86  
Snow  
Snow 0.00 in 0.10 in 0.90 in (1959)
Month to date snowfall 0.2  
Since 1 June snowfall 0.9  
Since 1 July snowfall 0.2  
Snow Depth -    
Sea Level Pressure  
Sea Level Pressure 30.06 in    
Wind  
Wind Speed 10 mph (SW)    
Max Wind Speed 20 mph    
Max Gust Speed 26 mph    
Visibility 5 miles    
Events Rain    
T = Trace of Precipitation, MM = Missing Value Source: NWS Daily Summary

Daily Weather History Graph

Daily Weather History Graph

Search for Another Location

Airport:

Trip Planner

Search our weather history database for the weather conditions in past years. The results will help you decide how hot, cold, wet, or windy it might be!

Date:

Astronomy

Jul. 27, 2013 Rise Set
Actual Time 3:18 AM AKDT 2:14 AM AKDT
Civil Twilight Sun does not rise Sun does not rise
Nautical Twilight Sun does not rise Sun does not rise
Astronomical Twilight Sun does not rise Sun does not rise
Moon 11:32 PM AKDT (7/27) 2:33 PM AKDT (7/27)
Length of Visible Light 24h 00m
Length of Day
22h 55m
Waning Gibbous, 69% of the Moon is Illuminated
Jul 27
Waning Gibbous
Jul 29
Last Quarter
Aug 6
New
Aug 14
First Quarter
Aug 20
Full

Hourly Weather History & Observations

Time (AKDT) Temp. Windchill Dew Point Humidity Pressure Visibility Wind Dir Wind Speed Gust Speed Precip Events Conditions
12:53 AM 48.0 °F - 45.0 °F 89% 30.08 in 6.0 mi ENE 9.2 mph - 0.00 in Rain Light Rain
1:10 AM 46.4 °F 41.9 °F 44.6 °F 93% 30.08 in 5.0 mi ENE 9.2 mph - 0.01 in Rain Light Rain
1:53 AM 46.9 °F - 45.0 °F 93% 30.08 in 3.0 mi ENE 6.9 mph - 0.03 in Rain Light Rain
2:05 AM 48.2 °F - 44.6 °F 87% 30.08 in 2.5 mi ENE 8.1 mph - 0.03 in Rain Rain
2:21 AM 48.2 °F - 46.4 °F 93% 30.08 in 4.0 mi ENE 5.8 mph - 0.05 in Rain Rain
2:29 AM 48.2 °F - 46.4 °F 93% 30.08 in 4.0 mi East 5.8 mph - 0.07 in Rain Rain
2:53 AM 48.0 °F - 46.0 °F 93% 30.08 in 2.5 mi East 6.9 mph - 0.13 in Rain Rain
3:01 AM 48.2 °F - 46.4 °F 93% 30.08 in 3.0 mi East 5.8 mph - 0.01 in Rain Rain
3:22 AM 50.0 °F - 48.2 °F 94% 30.08 in 9.0 mi SW 5.8 mph - 0.02 in Rain Light Rain
3:53 AM 50.0 °F - 46.9 °F 89% 30.08 in 9.0 mi SW 9.2 mph - 0.04 in Rain Light Rain
4:53 AM 50.0 °F - 48.0 °F 93% 30.07 in 7.0 mi SSW 5.8 mph - 0.01 in Rain Light Rain
5:06 AM 48.2 °F - 46.4 °F 93% 30.07 in 1.8 mi SW 4.6 mph - 0.00 in Rain Light Rain
5:28 AM 48.2 °F - 46.4 °F 93% 30.07 in 0.8 mi SW 5.8 mph - 0.01 in Rain Rain
5:38 AM 48.2 °F - 46.4 °F 93% 30.07 in 1.8 mi SW 6.9 mph - 0.01 in Rain Light Rain
5:43 AM 50.0 °F - 46.4 °F 87% 30.07 in 3.0 mi SW 6.9 mph - 0.01 in   Overcast
5:53 AM 48.9 °F - 46.9 °F 93% 30.08 in 5.0 mi SW 9.2 mph - 0.01 in Rain Light Rain
6:53 AM 48.0 °F - 46.0 °F 93% 30.08 in 6.0 mi SW 10.4 mph - 0.00 in Rain Light Rain
7:53 AM 48.0 °F - 46.0 °F 93% 30.07 in 3.0 mi SW 8.1 mph - 0.01 in Rain Light Rain
8:06 AM 48.2 °F - 46.4 °F 93% 30.07 in 3.0 mi WSW 8.1 mph - 0.00 in Rain Light Rain
8:19 AM 48.2 °F - 46.4 °F 93% 30.07 in 4.0 mi SW 8.1 mph - 0.01 in Rain Light Rain
8:44 AM 48.2 °F - 46.4 °F 93% 30.07 in 6.0 mi SW 8.1 mph - 0.02 in Rain Light Rain
8:53 AM 48.0 °F - 46.0 °F 93% 30.07 in 2.5 mi SSW 6.9 mph - 0.02 in Rain Light Rain
9:12 AM 48.2 °F - 46.4 °F 93% 30.07 in 4.0 mi SW 5.8 mph - 0.02 in Rain Light Rain
9:53 AM 50.0 °F - 46.9 °F 89% 30.07 in 6.0 mi SSW 5.8 mph - 0.04 in Rain Light Rain
10:06 AM 51.8 °F - 48.2 °F 88% 30.07 in 2.5 mi SSW 9.2 mph - 0.00 in Rain Light Rain
10:15 AM 51.8 °F - 48.2 °F 88% 30.06 in 1.2 mi SSW 10.4 mph - 0.00 in   Overcast
10:51 AM 51.8 °F - 48.2 °F 88% 30.06 in 2.5 mi SW 10.4 mph - 0.00 in Rain Light Rain
10:53 AM 51.1 °F - 48.9 °F 92% 30.06 in 3.0 mi SW 12.7 mph - 0.00 in Rain Light Rain
11:10 AM 51.8 °F - 48.2 °F 88% 30.06 in 4.0 mi SW 12.7 mph - 0.00 in Rain Light Rain
11:51 AM 51.8 °F - 48.2 °F 88% 30.05 in 2.5 mi SW 11.5 mph - 0.00 in Rain Light Rain
11:53 AM 52.0 °F - 48.9 °F 89% 30.06 in 2.5 mi SSW 12.7 mph - 0.00 in Rain Light Rain
12:07 PM 51.8 °F - 50.0 °F 94% 30.06 in 3.0 mi SSW 12.7 mph - 0.00 in Rain Light Rain
12:15 PM 51.8 °F - 50.0 °F 94% 30.05 in 2.0 mi SW 13.8 mph - 0.00 in Rain Light Rain
12:32 PM 51.8 °F - 50.0 °F 94% 30.06 in 2.0 mi SW 16.1 mph - 0.00 in Rain Light Rain
12:46 PM 51.8 °F - 50.0 °F 94% 30.06 in 2.0 mi SW 13.8 mph - 0.00 in Rain Light Rain
12:53 PM 52.0 °F - 48.9 °F 89% 30.06 in 2.0 mi SW 13.8 mph - 0.00 in Rain Light Rain
1:11 PM 51.8 °F - 48.2 °F 88% 30.06 in 3.0 mi SW 13.8 mph - 0.03 in Rain Rain
1:26 PM 51.8 °F - 48.2 °F 88% 30.06 in 2.5 mi SW 11.5 mph - 0.06 in Rain Rain
1:35 PM 51.8 °F - 48.2 °F 88% 30.06 in 3.0 mi SW 12.7 mph - 0.07 in Rain Light Rain
1:49 PM 51.8 °F - 48.2 °F 88% 30.06 in 3.0 mi SW 11.5 mph - 0.09 in Rain Rain
1:53 PM 51.1 °F - 48.9 °F 92% 30.06 in 3.0 mi SSW 11.5 mph - 0.10 in Rain Rain
2:07 PM 51.8 °F - 48.2 °F 88% 30.05 in 2.5 mi SW 12.7 mph - 0.03 in Rain Rain
2:19 PM 51.8 °F - 50.0 °F 94% 30.05 in 4.0 mi SW 15.0 mph 20.7 mph 0.05 in Rain Light Rain
2:30 PM 53.6 °F - 50.0 °F 88% 30.05 in 4.0 mi SSW 17.3 mph - 0.05 in Rain Light Rain
2:53 PM 53.1 °F - 51.1 °F 93% 30.05 in 4.0 mi SW 15.0 mph - 0.07 in Rain Light Rain
3:34 PM 53.6 °F - 50.0 °F 88% 30.05 in 4.0 mi SSW 12.7 mph - 0.03 in Rain Rain
3:51 PM 53.6 °F - 50.0 °F 88% 30.05 in 4.0 mi SW 12.7 mph - 0.05 in Rain Light Rain
3:53 PM 53.1 °F - 50.0 °F 89% 30.05 in 4.0 mi SW 11.5 mph - 0.05 in Rain Light Rain
4:53 PM 54.0 °F - 51.1 °F 90% 30.04 in 10.0 mi SW 15.0 mph 20.7 mph 0.00 in   Overcast
5:53 PM 54.0 °F - 50.0 °F 86% 30.03 in 10.0 mi SW 15.0 mph - N/A   Overcast
6:28 PM 53.6 °F - 50.0 °F 88% 30.03 in 10.0 mi SW 13.8 mph - N/A   Overcast
6:51 PM 53.6 °F - 50.0 °F 88% 30.03 in 10.0 mi SW 17.3 mph 21.9 mph N/A   Overcast
6:53 PM 54.0 °F - 50.0 °F 86% 30.03 in 10.0 mi SW 16.1 mph - N/A   Overcast
7:27 PM 53.6 °F - 50.0 °F 88% 30.03 in 10.0 mi SW 13.8 mph - N/A   Overcast
7:53 PM 54.0 °F - 50.0 °F 86% 30.02 in 10.0 mi SW 13.8 mph - N/A   Overcast
8:53 PM 53.1 °F - 50.0 °F 89% 30.02 in 10.0 mi SW 13.8 mph 21.9 mph N/A   Overcast
9:53 PM 53.1 °F - 48.9 °F 86% 30.00 in 10.0 mi SW 13.8 mph - N/A   Overcast
10:27 PM 53.6 °F - 50.0 °F 88% 29.99 in 10.0 mi SW 18.4 mph 25.3 mph N/A   Overcast
10:53 PM 54.0 °F - 51.1 °F 90% 29.99 in 10.0 mi SW 19.6 mph 26.5 mph N/A   Overcast
11:53 PM 54.0 °F - 51.1 °F 90% 29.99 in 10.0 mi SW 16.1 mph 23.0 mph N/A   Overcast